TimeCDT,TemperatureF,Dew PointF,Humidity,Sea Level PressureIn,VisibilityMPH,Wind Direction,Wind SpeedMPH,Gust SpeedMPH,PrecipitationIn,Events,Conditions,WindDirDegrees,DateUTC
12:53 AM,70.0,64.0,81,30.20,9.0,South,4.6,-,N/A,,Clear,190,2013-07-15 05:53:00
1:53 AM,68.0,64.0,87,30.21,8.0,South,3.5,-,N/A,,Clear,180,2013-07-15 06:53:00
2:53 AM,68.0,64.0,87,30.21,8.0,Calm,Calm,-,N/A,,Clear,0,2013-07-15 07:53:00
3:53 AM,68.0,63.0,84,30.22,7.0,Calm,Calm,-,N/A,,Clear,0,2013-07-15 08:53:00
4:53 AM,66.0,63.0,90,30.22,6.0,South,6.9,-,N/A,,Clear,170,2013-07-15 09:53:00
5:53 AM,68.0,64.0,87,30.23,5.0,South,3.5,-,N/A,,Clear,190,2013-07-15 10:53:00
6:53 AM,71.1,64.9,81,30.24,6.0,Calm,Calm,-,N/A,,Haze,0,2013-07-15 11:53:00
7:53 AM,75.9,66.0,71,30.25,8.0,SE,5.8,-,N/A,,Clear,140,2013-07-15 12:53:00
8:53 AM,79.0,68.0,69,30.25,9.0,South,4.6,-,N/A,,Clear,170,2013-07-15 13:53:00
9:53 AM,81.0,70.0,69,30.26,9.0,NE,5.8,-,N/A,,Clear,50,2013-07-15 14:53:00
10:53 AM,84.0,70.0,63,30.25,10.0,Variable,3.5,-,N/A,,Clear,0,2013-07-15 15:53:00
11:53 AM,84.9,66.9,55,30.25,10.0,East,4.6,-,N/A,,Clear,100,2013-07-15 16:53:00
12:53 PM,87.1,69.1,55,30.25,10.0,Variable,6.9,-,N/A,,Clear,0,2013-07-15 17:53:00
1:53 PM,87.1,68.0,53,30.24,10.0,East,5.8,-,N/A,,Clear,80,2013-07-15 18:53:00
2:53 PM,88.0,68.0,51,30.23,10.0,ENE,5.8,-,N/A,,Clear,70,2013-07-15 19:53:00
3:53 PM,88.0,69.1,53,30.22,10.0,Variable,5.8,-,N/A,,Partly Cloudy,0,2013-07-15 20:53:00
4:53 PM,88.0,69.1,53,30.20,10.0,ESE,9.2,-,N/A,,Mostly Cloudy,120,2013-07-15 21:53:00
5:53 PM,86.0,70.0,59,30.19,10.0,SE,12.7,-,N/A,,Clear,140,2013-07-15 22:53:00
6:53 PM,86.0,69.1,57,30.19,10.0,SE,8.1,-,N/A,,Clear,130,2013-07-15 23:53:00
7:53 PM,82.9,70.0,65,30.19,10.0,SSE,6.9,-,N/A,,Clear,150,2013-07-16 00:53:00
8:53 PM,78.1,70.0,76,30.19,10.0,SSE,3.5,-,N/A,,Clear,160,2013-07-16 01:53:00
9:53 PM,77.0,70.0,79,30.21,10.0,SSE,3.5,-,N/A,,Mostly Cloudy,150,2013-07-16 02:53:00
10:53 PM,75.9,70.0,82,30.21,10.0,South,3.5,-,N/A,,Mostly Cloudy,170,2013-07-16 03:53:00
11:53 PM,75.9,70.0,82,30.21,10.0,Calm,Calm,-,N/A,,Mostly Cloudy,0,2013-07-16 04:53:00